Погода в Архангельском

Россия / Тульская область     53°15′50″N   37°42′00″E
темп.,
°C
ветер,
м/с
пор.,
м/с
влажн.,
%
обл.,
%
осадки,
мм/ч
давл.,
гПа
погр.,
м
3 августа, вт
вт300:00+18юв2289100 2.3 100852
03:00+18юз499198 2.3 1008282
06:00+18зюз3694100 0.0 1008218
09:00+21зсз3474100 0.0 1010668
12:00+23з455975 0.3 10111291
15:00+23зсз6651100 0.4 10111455
18:00+22зсз565322 0.0 10111481
21:00+17сз33710 0.1 101345
4 августа, ср
ср400:00+16зсз35770 0.0 101482
03:00+15зсз33775 0.0 101538
06:00+15зсз357226 0.0 1016111
09:00+21сз33465 0.0 1016840
12:00+23зсз554316 0.0 10161714
15:00+24зюз353352 0.0 10162579
18:00+21сз464492 0.0 1017786
21:00+19сз2253100 0.0 101727
5 августа, чт
чт500:00+15сз11660 0.0 101811
03:00+14з227149 0.0 101811
06:00+14ю117178 0.0 101811
09:00+21ююз3346100 0.0 1018629
12:00+25ююз343363 0.0 10171992
15:00+27ююз4530100 0.0 10152802
18:00+25зсз1141100 0.0 1014117
21:00+20ссз5963100 0.0 1015278
6 августа, пт
пт600:00+17ссв2374100 0.2 101469
03:00+17юв2374100 0.5 101472
06:00+17вюв5975100 0.3 1012165
09:00+19ююв3862100 0.3 1012232
12:00+28ю4831100 0.0 10111759
15:00+31ююз6825100 0.0 10092266
18:00+29ююз223298 0.0 100920
21:00+25всв113989 0.0 100816
7 августа, сб
сб700:00+20сз1169100 1.1 101011
03:00+19вюв3583100 3.6 101085
06:00+17юв3679100 1.9 1011116
09:00+24ююв584997 2.0 1011327
12:00+31ю462662 0.0 10101332
15:00+30ю5927100 0.0 1009895
18:00+27ю61041100 0.1 1011683
21:00+24всв3544100 0.1 100978